This is the latest recevied weather packets stored in our database for station/object AC0MR. If no packets are shown the sender has not sent any weather packets the latest 10 day(s).
| Time | Temp. | Humidity | Pressure | Rain* | Wind** | Luminosity | Snow |
|---|---|---|---|---|---|---|---|
| 1777784119 | 9.44° C | 56% | 1014.2 hPa | 0 mm | - | 0 W/m² | - |
| 1777783519 | 9.44° C | 56% | 1014.1 hPa | 0 mm | - | 0 W/m² | - |
| 1777782919 | 9.44° C | 56% | 1014.2 hPa | 0 mm | - | 0 W/m² | - |
| 1777782319 | 9.44° C | 56% | 1014.2 hPa | 0 mm | - | 0 W/m² | - |
| 1777781719 | 9.44° C | 56% | 1014.4 hPa | 0 mm | - | 0 W/m² | - |
| 1777781119 | 8.89° C | 56% | 1014.5 hPa | 0 mm | - | 0 W/m² | - |
| 1777780519 | 8.89° C | 56% | 1014.5 hPa | 0 mm | - | 0 W/m² | - |
| 1777779919 | 8.89° C | 55% | 1014.7 hPa | 0 mm | - | 0 W/m² | - |
| 1777779319 | 9.44° C | 55% | 1014.9 hPa | 0 mm | - | 0 W/m² | - |
| 1777778719 | 9.44° C | 55% | 1014.9 hPa | 0 mm | - | 0 W/m² | - |
| 1777778119 | 9.44° C | 55% | 1015.1 hPa | 0 mm | - | 0 W/m² | - |
| 1777777519 | 9.44° C | 54% | 1015 hPa | 0 mm | - | 0 W/m² | - |
| 1777776919 | 9.44° C | 54% | 1015.1 hPa | 0 mm | - | 0 W/m² | - |
| 1777776319 | 9.44° C | 53% | 1015.1 hPa | 0 mm | - | 0 W/m² | - |
| 1777775719 | 9.44° C | 53% | 1015.1 hPa | 0 mm | - | 0 W/m² | - |
| 1777775119 | 10° C | 52% | 1015 hPa | 0 mm | - | 0 W/m² | - |
| 1777774519 | 10° C | 52% | 1015.1 hPa | 0 mm | - | 0 W/m² | - |
| 1777773919 | 10° C | 51% | 1014.9 hPa | 0 mm | - | 0 W/m² | - |
| 1777773319 | 10.56° C | 51% | 1014.8 hPa | 0 mm | - | 0 W/m² | - |
| 1777772719 | 11.11° C | 49% | 1014.8 hPa | 0 mm | - | 0 W/m² | - |
| 1777772119 | 11.67° C | 48% | 1014.7 hPa | 0 mm | - | 0 W/m² | - |
| 1777771519 | 11.67° C | 46% | 1014.8 hPa | 0 mm | - | 0 W/m² | - |
| 1777770919 | 12.22° C | 44% | 1014.9 hPa | 0 mm | - | 0 W/m² | - |
| 1777770319 | 12.78° C | 43% | 1014.9 hPa | 0 mm | - | 3 W/m² | - |
| 1777769719 | 13.33° C | 42% | 1014.9 hPa | 0 mm | - | 13 W/m² | - |
* Rain latest hour (hover to see other rain measurements)
** Current wind speed in m/s (hover to see current wind gust speed)